Regional Weather Roundup
Issued by NWS

Home | Current Version | Previous Version | Text Only | Print | Product List | Glossary On
Versions: 1 2 3 4 5 6 7 8 9 10 11 12 13 14 15 16 17 18 19 20 21 22 23 24 25 26 27 28 29 30 31 32 33 34 35 36 37 38 39 40 41 42 43 44 45 46 47 48 49 50
000
ASUS42 KKEY 012310
RWRKEY

FLORIDA REGIONAL WEATHER ROUNDUP FOR THE FLORIDA KEYS
NATIONAL WEATHER SERVICE KEY WEST FLORIDA
700 PM EDT FRI AUG 01 2014

...SOUTH FLORIDA AND THE KEYS...

CITY           SKY/WX    TMP DP  RH WIND       PRES   REMARKS
FORT MYERS     MOSUNNY   84  72  67 NW9       29.93R
SW REGIONAL AP MOSUNNY   87  73  62 NW10      29.92S HX  94
NAPLES         PTSUNNY   88  74  63 W8        29.93R HX  96
MIAMI          PTSUNNY   82  70  66 NW3       29.95S
WEST KENDALL   MOSUNNY   79  72  79 NW8       29.94F
HOMESTEAD      MOSUNNY   82  71  71 N7        29.94S
MARATHON       SUNNY     89  75  63 N5        29.94R HX  99
BOCA CHICA NAS PTSUNNY   90  75  61 VRB5      29.93R HX 100
KEY WEST INTL  SUNNY     90  75  61 N6        29.93R HX 100

...INTERNATIONAL WEATHER...

CITY           SKY/WX    TMP DP  RH WIND       PRES   REMARKS
NASSAU BAHAMAS NOT AVBL
CANCUN MEXICO  MOSUNNY   86  75  70 E8        29.91F HX  95
COZUMEL MEXICO PTSUNNY   84  77  79 E9        29.91S HX  94

ADJACENT COASTAL WATERS...

STATION/POSITION TIME  SKY/WX   TEMP    WIND        PRES    WAVE
                                AIR SEA DIR/SP/G            HT/PER
                 (UTC)          (F)     (DEG/KT/KT) (MB)    (FT/S)
PULASKI SHOAL LI 2300            86     330/  5/  5 1013.7R
SAND KEY         2300            86      40/  5/  6 1013.5R
SOMBRERO KEY     2200            89      50/  1/  2 1014.1F
LONG KEY         2159            88 92  280/  1/  2 1013.9F
MOLASSES REEF    2200            86 88   90/  2/  2 1013.7F
FOWEY ROCKS      2200            86 87  110/  7/  8 1014.3R
Buoy 42080       NOT AVBL

$$



USA.gov is the U.S. government's official web portal to all federal, state and local government web resources and services.